Theta_e
299 299 299 296 294 297 307 310 306 309 307 308 305 303 310 312 312 311 311 310 311 311 311 311 311 311 312 313 312 314 312 312 314 315 314 313 313 312 313 316 312 306 305 308
299 299 299 296 295 300 305 308 309 310 310 305 305 309 312 311 312 311 310 310 310 310 310 311 310 310 309 312 311 312 310 310 311 313 312 312 315 313 313 310 308 306 307 307
299 299 299 297 295 297 305 307 307 308 310 311 310 311 311 312 311 311 310 310 309 310 310 309 311 310 310 310 309 310 310 309 307 311 310 312 313 313 312 311 308 311 308 309
299 299 300 298 296 295 305 305 305 304 308 310 308 310 312 313 313 311 310 311 310 310 310 310 310 310 310 309 309 309 308 306 305 309 311 309 310 312 313 313 314 315 314 313
299 299 299 300 299 296 296 301 301 303 303 305 307 309 311 313 312 311 311 313 311 310 311 310 310 309 308 309 308 309 306 305 303 303 309 309 310 309 312 314 314 313 309 309
299 299 299 299 299 300 298 297 300 302 303 302 309 309 310 310 308 311 311 312 311 310 309 309 310 309 309 307 307 307 308 303 300 302 308 308 307 308 308 310 310 311 310 310
299 298 298 298 298 298 298 297 297 298 299 300 301 300 303 302 305 309 310 312 311 310 311 311 309 309 308 308 307 307 307 304 299 300 304 304 306 307 307 309 309 309 308 307
298 299 298 298 298 298 298 298 298 297 296 296 297 298 299 303 305 308 311 311 311 311 312 308 309 308 310 309 307 306 306 306 303 305 302 306 309 308 307 307 307 307 309 307
298 299 298 298 298 298 298 298 298 297 296 295 297 296 300 299 300 305 310 309 311 311 308 310 311 309 309 311 311 306 308 308 306 308 309 311 310 309 308 308 309 309 308 307
299 298 298 298 298 298 298 298 297 297 297 297 297 296 297 297 296 297 303 300 307 310 307 310 309 306 309 311 309 309 311 310 311 309 312 308 306 309 310 312 311 310 308 308
299 299 298 298 298 298 298 297 296 295 296 295 296 296 295 296 296 296 297 304 306 307 308 308 307 308 307 307 306 307 307 307 308 309 310 307 309 311 312 311 312 310 308 308
300 298 298 298 298 298 297 296 296 295 295 295 296 296 295 296 295 296 296 296 302 302 307 307 307 310 306 305 308 305 308 306 306 306 308 306 309 311 311 312 312 312 311 309
300 299 298 297 297 297 297 296 295 295 295 295 296 295 296 295 296 296 296 297 298 299 297 300 305 307 306 307 304 306 306 305 307 307 307 305 309 312 312 312 312 312 313 313
299 299 297 297 298 297 296 295 294 294 295 294 296 296 295 297 298 296 295 296 296 296 296 296 299 305 304 305 305 305 306 306 305 305 306 308 310 309 310 311 312 312 312 312
298 297 298 298 297 297 296 294 294 294 294 294 295 296 295 295 295 295 296 295 295 295 296 295 297 298 299 299 302 303 306 307 306 307 307 308 309 310 310 311 311 311 311 311
298 297 297 297 297 297 296 297 295 294 295 295 296 296 297 296 295 295 295 295 295 295 295 296 296 296 299 298 301 302 302 302 306 306 306 308 308 311 311 311 311 311 310 310
298 298 297 297 298 295 295 294 294 294 294 294 293 295 297 297 298 297 296 295 295 295 295 295 295 295 299 298 298 298 298 298 298 298 303 307 310 311 311 310 310 310 309 309
298 297 298 296 296 296 295 294 295 294 294 294 287 293 297 299 299 299 296 296 296 295 295 295 296 295 295 295 295 296 296 297 298 301 301 303 307 310 310 310 309 308 307 306
297 297 297 295 294 295 295 296 295 295 295 295 294 292 294 298 299 299 297 296 296 295 295 295 294 295 294 296 296 296 298 300 302 301 301 302 305 307 307 307 306 306 306 306
297 297 296 295 294 295 296 296 296 295 297 297 294 295 292 297 298 298 299 297 296 296 296 295 295 295 296 299 300 299 299 302 301 302 299 301 301 305 305 305 306 306 305 305
297 296 295 295 296 296 296 297 296 296 296 297 297 297 296 296 298 299 298 301 298 300 300 297 296 301 303 300 299 299 299 300 302 301 301 300 301 302 304 305 305 304 304 304
296 295 295 296 296 297 291 286 294 293 293 298 297 297 296 296 297 299 299 300 301 302 298 300 304 303 299 298 297 298 298 299 300 300 300 300 301 303 303 303 303 303 303 303
297 295 295 296 294 289 286 288 288 287 296 298 296 293 295 296 297 299 302 303 305 300 304 306 302 301 299 297 296 297 297 297 297 298 299 299 300 302 302 302 303 303 303 303
297 296 288 287 286 286 286 286 286 297 297 295 294 293 295 296 295 300 303 303 304 304 304 302 299 300 300 298 296 296 295 295 296 296 297 298 298 299 299 299 298 298 298 299
297 295 291 286 293 296 296 296 295 295 295 294 294 294 295 293 295 296 300 304 305 300 299 298 300 300 300 299 297 295 293 293 294 295 295 295 296 297 295 294 293 293 293 294
296 295 290 293 293 293 295 296 295 295 295 294 294 293 294 295 297 298 298 302 297 297 297 299 300 300 300 299 298 296 293 290 290 291 293 293 292 290 289 289 289 290 291 291
295 294 295 295 295 295 295 295 294 295 294 288 290 287 290 293 295 296 296 296 292 300 299 298 296 296 297 298 297 298 296 291 291 292 293 293 292 293 292 289 288 289 289 289
Wind_Speed
23 23 23 24 23 17 4 3 3 3 3 2 2 2 2 1 0 1 2 2 2 1 2 4 3 5 4 14 9 5 2 4 3 3 3 4 2 6 5 3 4 3 3 6
23 22 21 24 20 16 8 3 2 2 3 2 3 1 1 1 2 2 3 2 3 2 2 4 3 3 5 13 7 7 6 1 3 2 1 2 6 5 3 4 3 6 5 5
21 23 21 21 19 13 7 2 2 1 1 1 3 1 1 1 1 1 2 2 3 3 3 4 3 2 3 4 4 6 5 3 5 5 4 5 6 11 8 6 4 4 6 4
19 22 20 20 20 15 3 4 2 4 2 3 3 3 1 2 1 3 1 2 0 1 1 2 3 2 2 3 2 3 4 4 3 1 2 3 3 11 16 13 16 9 11 11
19 20 20 21 20 15 17 4 4 5 7 9 4 5 6 4 3 4 2 2 5 4 4 2 3 4 2 3 1 2 2 1 2 3 2 1 3 6 14 18 13 12 4 7
16 17 19 21 23 21 11 8 3 1 9 6 2 4 4 4 5 3 6 3 2 5 2 4 4 3 6 6 6 3 2 4 3 3 1 2 6 15 13 10 10 16 13 16
13 15 18 19 20 20 21 17 6 4 2 3 4 7 7 7 5 2 5 9 3 3 7 2 1 5 7 8 3 6 4 4 2 2 2 1 6 2 9 17 8 16 8 7
12 14 17 18 17 16 16 18 10 4 1 5 4 12 5 8 8 2 2 7 7 7 5 3 3 4 1 3 5 4 4 4 2 3 3 7 4 3 6 7 9 16 18 10
13 14 15 17 14 15 13 15 14 5 2 3 5 5 6 3 4 5 4 5 7 5 2 2 3 3 4 2 3 4 4 3 3 2 2 4 2 0 3 4 5 3 18 11
14 13 14 15 15 14 13 13 14 7 3 1 8 4 3 5 3 3 4 10 7 7 2 1 2 3 4 4 6 4 3 1 4 4 3 6 6 3 4 2 4 9 11 21
12 15 13 13 14 13 13 12 12 7 2 4 3 5 7 7 4 2 9 2 3 4 1 1 2 1 3 1 4 6 6 5 4 3 3 7 3 2 4 3 3 5 4 20
10 11 11 9 12 13 13 9 9 7 3 2 5 7 6 8 6 3 6 3 4 4 2 2 2 2 1 1 3 1 2 6 4 7 5 5 7 7 8 6 3 2 4 11
7 9 8 8 11 15 11 7 9 8 5 4 7 7 10 5 3 5 3 1 2 2 4 2 2 4 3 2 4 3 3 5 3 2 4 8 11 16 12 9 7 4 4 8
5 8 7 8 11 15 8 7 9 11 5 3 2 8 6 6 6 5 5 7 1 2 3 2 2 2 2 3 3 2 5 1 3 5 5 7 13 12 15 14 11 8 8 8
7 7 5 7 11 10 4 6 7 12 4 2 2 3 9 9 7 4 2 6 11 6 3 1 2 4 4 4 2 8 8 6 4 5 8 10 15 15 18 17 14 11 11 10
5 7 9 10 7 2 1 2 2 10 6 3 2 1 2 7 6 4 1 1 3 2 2 4 4 3 2 2 3 8 11 23 7 6 19 20 22 9 12 20 16 14 11 10
6 8 9 6 6 4 3 3 6 6 2 2 1 3 2 5 4 2 1 4 2 3 3 4 3 3 4 2 3 9 23 30 32 24 24 16 17 12 12 21 17 14 11 10
5 4 7 9 7 5 6 10 6 4 1 2 2 3 4 5 3 1 2 3 3 4 3 3 3 3 3 4 14 23 25 26 26 14 20 22 26 16 16 16 14 11 10 10
3 6 7 5 4 4 5 5 8 8 3 2 3 1 3 7 3 3 2 3 2 3 3 3 2 2 3 8 16 23 24 20 9 11 18 12 12 15 13 11 9 8 7 8
6 7 2 1 3 3 3 4 5 5 5 4 3 2 3 5 3 3 1 4 2 2 4 4 2 3 18 17 21 17 16 12 15 17 20 20 12 8 9 7 6 6 7 8
2 3 2 3 4 3 3 3 4 5 4 4 3 4 4 5 2 2 2 1 2 2 2 2 2 2 6 20 19 14 9 8 9 11 15 8 7 11 6 4 4 4 5 6
4 6 6 3 2 3 5 2 4 2 2 5 3 5 6 5 4 4 3 2 2 4 8 2 1 4 22 22 21 17 15 11 9 7 11 6 4 3 2 1 1 2 3 4
7 4 2 2 3 7 5 2 4 3 5 4 9 7 4 3 3 5 3 3 3 8 3 2 2 21 28 25 20 19 16 12 8 7 5 5 3 3 4 4 1 2 3 4
4 2 4 3 3 1 4 4 4 1 4 12 13 4 3 3 2 3 3 3 3 2 5 3 5 22 31 26 18 16 16 14 10 7 4 3 3 4 3 3 2 3 5 5
4 3 1 1 1 2 1 3 3 1 5 9 6 5 2 3 3 2 3 3 2 5 1 3 18 24 24 24 19 13 13 11 11 9 5 2 1 0 2 3 4 5 5 5
4 4 3 3 1 1 2 4 3 1 4 4 1 2 3 3 3 3 4 3 3 3 3 15 19 22 20 21 19 13 9 10 8 5 5 5 4 3 3 4 6 5 5 5
5 4 4 4 4 6 5 3 2 2 3 1 3 2 6 4 3 3 3 3 3 5 11 15 19 24 25 22 20 18 13 8 7 7 7 7 6 6 4 7 7 6 6 6
Wind_Direction
1 360 0 360 357 11 67 84 78 345 350 254 189 108 207 281 15 268 325 324 17 13 7 64 106 152 206 175 154 139 132 112 137 178 211 229 171 203 177 163 225 223 154 277
7 4 7 6 4 10 33 78 77 340 344 43 337 287 347 338 27 29 25 5 14 354 47 87 78 90 102 176 172 164 177 138 112 106 11 273 217 201 172 114 63 208 169 257
8 10 13 13 12 14 53 49 88 326 248 250 272 32 199 189 8 312 10 320 14 25 28 40 126 94 40 96 129 173 144 146 172 187 204 136 192 193 189 170 185 197 219 268
8 13 21 23 22 17 95 55 46 351 322 354 337 302 315 182 67 355 354 3 57 292 154 82 92 82 50 20 99 109 120 171 136 278 136 136 219 192 195 204 214 207 236 246
15 20 29 32 29 37 59 69 21 352 307 311 318 356 356 46 26 351 11 52 358 75 90 49 178 129 172 202 58 99 22 148 88 325 274 171 271 234 209 214 223 245 242 260
19 30 31 29 32 39 56 52 52 4 348 337 42 12 339 34 5 47 52 352 106 67 53 312 301 250 202 172 152 144 102 123 81 265 358 355 299 230 210 219 216 210 210 225
20 26 30 30 31 36 42 35 38 23 341 22 32 359 328 358 337 305 335 16 43 356 335 314 121 82 108 142 139 139 127 101 93 206 34 287 242 238 216 215 225 218 239 191
26 23 24 30 34 40 43 40 47 46 75 334 347 357 349 347 356 7 348 22 355 338 349 61 51 354 53 207 167 156 130 121 121 143 200 283 274 194 169 172 254 220 219 209
23 19 19 23 31 39 49 37 33 37 71 13 350 330 4 359 336 344 31 3 14 11 65 77 171 201 199 199 191 136 153 93 129 173 206 250 276 325 208 150 283 268 209 195
18 17 21 28 41 36 34 31 34 35 6 95 6 29 326 347 360 300 329 339 351 15 46 87 204 257 183 178 176 188 151 159 216 244 275 286 258 221 147 138 258 316 224 199
14 10 24 27 28 27 21 20 4 40 331 331 51 349 324 329 25 19 336 338 18 351 66 113 285 222 251 168 200 176 170 169 195 176 228 273 207 118 194 243 312 328 306 195
4 359 16 19 11 7 3 26 23 21 64 337 0 37 11 244 256 340 338 338 1 13 302 24 309 308 298 168 264 57 213 188 183 185 214 250 240 243 267 254 294 327 125 176
348 343 15 11 2 356 7 20 39 40 55 66 54 39 2 33 16 315 239 337 8 36 25 353 293 282 360 257 246 256 282 181 221 128 257 241 258 243 257 244 249 244 201 167
342 341 20 8 355 354 8 45 47 33 82 75 30 3 32 4 340 312 237 227 279 22 360 328 274 250 51 257 285 234 223 139 225 256 299 281 271 251 241 239 239 227 193 185
335 349 1 345 340 341 8 78 53 27 57 146 321 9 14 5 8 12 261 233 242 276 304 1 249 286 332 307 288 247 228 223 192 234 265 249 258 268 236 221 218 205 194 191
345 349 353 340 345 37 75 54 4 3 24 123 93 48 338 344 339 327 271 177 185 200 225 253 268 264 263 303 262 278 279 259 282 310 320 307 284 266 252 215 207 204 209 220
356 351 356 31 74 60 62 32 337 342 87 126 56 323 300 337 332 320 236 208 217 223 245 241 254 274 219 245 256 284 296 296 297 309 321 295 261 250 221 205 199 205 218 231
355 26 78 81 83 74 15 5 11 349 93 68 78 301 348 356 324 299 183 167 200 228 257 266 244 269 235 258 248 269 295 306 306 281 289 304 267 204 183 186 197 210 228 247
53 116 104 68 43 57 41 5 18 36 36 63 71 43 293 339 306 285 168 180 213 212 229 239 174 258 237 245 294 305 311 303 305 316 306 306 204 173 182 188 199 221 244 266
140 132 91 58 43 57 34 25 13 12 37 52 85 349 296 319 318 292 215 171 223 231 231 160 210 260 270 300 318 318 284 292 322 291 274 307 271 187 196 199 212 237 264 279
147 128 102 116 82 52 44 27 25 348 24 19 334 297 311 319 294 302 276 247 180 258 172 157 241 251 309 326 332 316 312 292 285 276 289 292 273 230 210 216 243 254 266 285
121 117 121 122 71 55 72 347 329 45 275 326 308 314 304 300 286 272 267 262 209 246 144 204 263 335 335 341 338 341 327 306 291 277 266 248 248 210 191 214 216 287 297 300
119 100 113 54 17 44 91 345 319 360 336 341 333 329 314 306 287 275 275 266 244 132 210 185 44 329 339 343 341 339 345 335 317 289 257 236 204 154 144 132 121 297 310 314
90 106 34 92 326 232 178 183 193 297 302 327 330 317 290 296 303 273 273 286 286 277 24 10 310 331 335 337 336 340 343 342 340 331 311 271 231 226 256 280 310 324 312 300
96 85 89 241 306 245 212 246 274 271 311 336 342 314 288 296 291 248 295 270 351 47 236 253 314 327 337 335 329 335 340 343 344 346 345 335 269 189 311 317 337 336 324 323
110 106 101 196 315 277 230 253 262 257 324 337 55 334 315 285 319 295 246 290 191 229 227 299 327 329 340 345 333 315 326 332 330 324 341 343 337 314 319 334 339 337 343 345
124 121 168 224 261 257 263 252 259 274 314 143 94 70 218 322 270 262 225 221 214 287 307 325 331 327 322 323 334 326 290 268 269 283 288 267 269 273 308 338 325 326 326 333